Zurück zum Katalog

CZ-4 DEB

AktivSSO
NORAD 26444·DEBRIS·🇨🇳 China

Gestartet Oct 14, 1999 von Taiyuan Satellite Launch Center

Loading…

Nächste Überflüge (nächste 24 Stunden)

TLE

AktuellSource: Space-Track

Epoche: Sep 14, 2026, 13:00 UTC

1 26444U 99057KR  26257.54204140  .00001584  00000-0  27189-3 0  9990
2 26444  98.5203 345.8351 0067978 138.9857 350.4170 14.68724811402172

Verfolge CZ-4 DEB in Echtzeit mit AllMySat

Download on the App Store